Вернуться в каталог

STARLINK-35710

АктивенСвязьVLEO
NORAD 66212·PAYLOAD·🇺🇸 United States

Запущен Oct 28, 2025 с Vandenberg Space Force Base

Loading…

Ближайшие Пролёты (ближайшие 24 часа)

TLE

СвежийSource: CelesTrak SupGP

Эпоха: Sep 14, 2026, 22:45 UTC

1 66212C 25244G   26257.94840278  .00034885  00000+0  10310-2 0  2579
2 66212  53.1584  69.8535 0001170  85.0934 132.8073 15.34365266    15

Отслеживайте STARLINK-35710 в реальном времени с AllMySat

Download on the App Store